******************************************************************************* JPL/HORIZONS McNaught (C/2006 P1) 2024-Sep-13 21:26:30 Rec #:90003650 (+COV) Soln.date: 2021-Apr-15_23:30:59 # obs: 331 (2006-2007) IAU76/J2000 helio. ecliptic osc. elements (au, days, deg., period=Julian yrs): EPOCH= 2454065.5 ! 2006-Nov-26.0000000 (TDB) RMSW= n.a. EC= 1.000018815882278 QR= .1707364648528884 TP= 2454113.2988436329 OM= 267.4148026435385 W= 155.9749681149126 IN= 77.83700054890942 A= -9074.061068728695 MA= -5.4502812965308E-5 ADIST= 9.999999E99 PER= 9.999999E99 N= 1.14E-6 ANGMOM= .010052212 DAN= 3.94245 DDN= .17847 L= 82.04948520000001 B= 23.4529837 MOID= .40940601 TP= 2007-Jan-12.7988436329 Comet physical (GM= km^3/s^2; RAD= km): GM= n.a. RAD= n.a. M1= 5.4 M2= 12.9 k1= 20.75 k2= 5. PHCOF= .030 COMET comments 1: soln ref.= JPL#27, data arc: 2006-08-07 to 2007-07-11 2: k1=20.75, k2=5., phase coef.=0.03; ******************************************************************************* ******************************************************************************* Ephemeris / WWW_USER Fri Sep 13 21:26:30 2024 Pasadena, USA / Horizons ******************************************************************************* Target body name: McNaught (C/2006 P1) {source: JPL#27} Center body name: Sun (10) {source: DE441} Center-site name: BODY CENTER ******************************************************************************* Start time : A.D. 2006-Jan-01 00:00:00.0000 TDB Stop time : A.D. 2050-Jan-01 00:00:00.0000 TDB Step-size : 1 calendar years ******************************************************************************* Center geodetic : 0.0, 0.0, 0.0 {E-lon(deg),Lat(deg),Alt(km)} Center cylindric: 0.0, 0.0, 0.0 {E-lon(deg),Dxy(km),Dz(km)} Center radii : 695700.0, 695700.0, 695700.0 km {Equator_a, b, pole_c} Keplerian GM : 2.9591220828411951E-04 au^3/d^2 Small perturbers: Yes {source: SB441-N16} Output units : AU-D, deg, Julian Day Number (Tp) Calendar mode : Mixed Julian/Gregorian Output type : GEOMETRIC osculating elements Output format : 10 Reference frame : Ecliptic of J2000.0 ******************************************************************************* Initial IAU76/J2000 heliocentric ecliptic osculating elements (au, days, deg.): EPOCH= 2454065.5 ! 2006-Nov-26.0000000 (TDB) RMSW= n.a. EC= 1.000018815882278 QR= .1707364648528884 TP= 2454113.2988436329 OM= 267.4148026435385 W= 155.9749681149126 IN= 77.83700054890942 Equivalent ICRF heliocentric cartesian coordinates (au, au/d): X= 3.108169182050542E-02 Y=-1.293847674003737E+00 Z=-1.220881115605168E-01 VX= 1.178722771799021E-03 VY= 1.912334650954304E-02 VZ= 9.391595170035781E-03 Comet physical (GM= km^3/s^2; RAD= km): GM= n.a. RAD= n.a. M1= 5.4 M2= 12.9 k1= 20.75 k2= 5. PHCOF= .030 ******************************************************************************* JDTDB EC QR IN OM W Tp N MA TA A AD PR ******************************************************************************* $$SOE 2453736.500000000 = A.D. 2006-Jan-01 00:00:00.0000 TDB EC= 1.000005782458069E+00 QR= 1.708264723661779E-01 IN= 7.777048413972639E+01 OM= 2.674133236991215E+02 W = 1.559703544675618E+02 Tp= 2454113.330119534396 N = 1.941064886131373E-07 MA=-7.314517130649581E-05 TA= 2.001652643638145E+02 A =-2.954218955406444E+04 AD= 9.999999999999998E+99 PR= 9.999999999999998E+99 2454101.500000000 = A.D. 2007-Jan-01 00:00:00.0000 TDB EC= 1.000018289127704E+00 QR= 1.707326730096299E-01 IN= 7.783726524293805E+01 OM= 2.674149090814320E+02 W = 1.559755755549024E+02 Tp= 2454113.298753427342 N = 1.092744433542437E-06 MA=-1.289302213027348E-05 TA= 2.551054080909800E+02 A =-9.335200441089135E+03 AD= 9.999999999999998E+99 PR= 9.999999999999998E+99 2454466.500000000 = A.D. 2008-Jan-01 00:00:00.0000 TDB EC= 9.999926009822534E-01 QR= 1.710769012720461E-01 IN= 7.784081314962350E+01 OM= 2.674103492588047E+02 W = 1.559981847737290E+02 Tp= 2454113.249143936671 N = 2.803355108696876E-07 MA= 9.902875919587606E-05 TA= 1.593636815396807E+02 A = 2.312156925745410E+04 AD= 4.624296743800693E+04 PR= 1.284175518410666E+09 2454832.500000000 = A.D. 2009-Jan-01 00:00:00.0000 TDB EC= 9.999399913193874E-01 QR= 1.710566274942796E-01 IN= 7.784801219361431E+01 OM= 2.674046884201680E+02 W = 1.559899752626132E+02 Tp= 2454113.077318399679 N = 6.476126646543520E-06 MA= 4.659072398457254E-03 TA= 1.638560353488186E+02 A = 2.850531385599674E+03 AD= 5.700891714571852E+03 PR= 5.558878317985668E+07 2455197.500000000 = A.D. 2010-Jan-01 00:00:00.0000 TDB EC= 9.999138117499149E-01 QR= 1.705135835311319E-01 IN= 7.795054903765043E+01 OM= 2.673205103556829E+02 W = 1.559780525269806E+02 Tp= 2454112.939916909672 N = 1.120050736885372E-05 MA= 1.214762320263258E-02 TA= 1.659942096028349E+02 A = 1.978385491779932E+03 AD= 3.956600469976332E+03 PR= 3.214140111197866E+07 2455562.500000000 = A.D. 2011-Jan-01 00:00:00.0000 TDB EC= 9.999086481615234E-01 QR= 1.701783354244766E-01 IN= 7.816260323833697E+01 OM= 2.671556455287641E+02 W = 1.559975829177367E+02 Tp= 2454112.922819378320 N = 1.225811256029905E-05 MA= 1.776908024489232E-02 TA= 1.673239323194860E+02 A = 1.862889004336488E+03 AD= 3.725607830337552E+03 PR= 2.936830594670419E+07 2455927.500000000 = A.D. 2012-Jan-01 00:00:00.0000 TDB EC= 9.999180533244676E-01 QR= 1.704441076976789E-01 IN= 7.839204955838541E+01 OM= 2.669843669105275E+02 W = 1.560443568989257E+02 Tp= 2454113.099996518344 N = 1.039030018675338E-05 MA= 1.885216069504584E-02 TA= 1.682424483235885E+02 A = 2.079939260370399E+03 AD= 4.159708076633100E+03 PR= 3.464769963614379E+07 2456293.500000000 = A.D. 2013-Jan-01 00:00:00.0000 TDB EC= 9.999363548347963E-01 QR= 1.714668812146673E-01 IN= 7.852764517144512E+01 OM= 2.668860684067187E+02 W = 1.561035447177825E+02 Tp= 2454113.505471495911 N = 7.048258571525664E-06 MA= 1.536516512138890E-02 TA= 1.689135024179504E+02 A = 2.694106939078601E+03 AD= 5.388042411275987E+03 PR= 5.107644623799244E+07 2456658.500000000 = A.D. 2014-Jan-01 00:00:00.0000 TDB EC= 9.999541596843631E-01 QR= 1.728702968521285E-01 IN= 7.850671971826911E+01 OM= 2.669006892105246E+02 W = 1.561503398456015E+02 Tp= 2454113.989546982571 N = 4.255934214096314E-06 MA= 1.082926909512385E-02 TA= 1.694303846318466E+02 A = 3.771141067648679E+03 AD= 7.542109265000507E+03 PR= 8.458777365675065E+07 2457023.500000000 = A.D. 2015-Jan-01 00:00:00.0000 TDB EC= 9.999660139142621E-01 QR= 1.742659605384758E-01 IN= 7.829279263947821E+01 OM= 2.670489816358272E+02 W = 1.561661397989868E+02 Tp= 2454114.337886170018 N = 2.684336460332236E-06 MA= 7.809169931146231E-03 TA= 1.698534779373274E+02 A = 5.127567848895594E+03 AD= 1.025496143183065E+04 PR= 1.341113550107811E+08 2457388.500000000 = A.D. 2016-Jan-01 00:00:00.0000 TDB EC= 9.999704166433954E-01 QR= 1.753321443288969E-01 IN= 7.795797871724901E+01 OM= 2.672779646241676E+02 W = 1.561510245032231E+02 Tp= 2454114.406916295644 N = 2.160145130344335E-06 MA= 7.072516231071514E-03 TA= 1.702186294895307E+02 A = 5.926715709477084E+03 AD= 1.185325608680984E+04 PR= 1.666554690899934E+08 2457754.500000000 = A.D. 2017-Jan-01 00:00:00.0000 TDB EC= 9.999653466698416E-01 QR= 1.756573773730125E-01 IN= 7.756532195763631E+01 OM= 2.675437989450930E+02 W = 1.561019481801866E+02 Tp= 2454113.961185197812 N = 2.731001551943390E-06 MA= 9.942317153131106E-03 TA= 1.705547158204282E+02 A = 5.068989807610114E+03 AD= 1.013780395784285E+04 PR= 1.318197713010536E+08 2458119.500000000 = A.D. 2018-Jan-01 00:00:00.0000 TDB EC= 9.999535585256613E-01 QR= 1.752293849870207E-01 IN= 7.718006189944056E+01 OM= 2.678024249710391E+02 W = 1.560299350293502E+02 Tp= 2454112.995962922927 N = 4.252581705797641E-06 MA= 1.703798577227624E-02 TA= 1.708693276915596E+02 A = 3.773122784800295E+03 AD= 7.546070340215602E+03 PR= 8.465445813991155E+07 2458484.500000000 = A.D. 2019-Jan-01 00:00:00.0000 TDB EC= 9.999370440885434E-01 QR= 1.739055976347607E-01 IN= 7.693309788201614E+01 OM= 2.679670170069051E+02 W = 1.559528291344420E+02 Tp= 2454111.534735265654 N = 6.788729524582468E-06 MA= 2.968687840266917E-02 TA= 1.711735563943486E+02 A = 2.762339446969750E+03 AD= 5.524504988341864E+03 PR= 5.302906805999777E+07 2458849.500000000 = A.D. 2020-Jan-01 00:00:00.0000 TDB EC= 9.999185909332219E-01 QR= 1.717668063026953E-01 IN= 7.688387561138092E+01 OM= 2.679997220186701E+02 W = 1.558843720218743E+02 Tp= 2454109.692236600444 N = 1.016961184760661E-05 MA= 4.820200518604639E-02 TA= 1.714694472658510E+02 A = 2.109922310870727E+03 AD= 4.219672854935150E+03 PR= 3.539958116343694E+07 2459215.500000000 = A.D. 2021-Jan-01 00:00:00.0000 TDB EC= 9.999035726601212E-01 QR= 1.693271067485864E-01 IN= 7.712700773520028E+01 OM= 2.678407917535967E+02 W = 1.558536396275817E+02 Tp= 2454108.002661518753 N = 1.339413344471890E-05 MA= 6.841050092018089E-02 TA= 1.717468285424282E+02 A = 1.756007237800106E+03 AD= 3.511845148493464E+03 PR= 2.687743865520038E+07 2459580.500000000 = A.D. 2022-Jan-01 00:00:00.0000 TDB EC= 9.998950938922841E-01 QR= 1.671571252017313E-01 IN= 7.769150172414014E+01 OM= 2.674758091466412E+02 W = 1.558767187552112E+02 Tp= 2454106.980819483288 N = 1.549593887297686E-05 MA= 8.481731864133533E-02 TA= 1.719930723459997E+02 A = 1.593397456459631E+03 AD= 3.186627755794059E+03 PR= 2.323189339806952E+07 2459945.500000000 = A.D. 2023-Jan-01 00:00:00.0000 TDB EC= 9.998954899092340E-01 QR= 1.661600033095169E-01 IN= 7.840940238596805E+01 OM= 2.670174452426738E+02 W = 1.559477917941630E+02 Tp= 2454107.195969904773 N = 1.554718165768432E-05 MA= 9.076917332868550E-02 TA= 1.721896206594581E+02 A = 1.589894354613832E+03 AD= 3.179622549224354E+03 PR= 2.315532216233333E+07 2460310.500000000 = A.D. 2024-Jan-01 00:00:00.0000 TDB EC= 9.999046297016774E-01 QR= 1.668733676268876E-01 IN= 7.907370341329406E+01 OM= 2.665983985559143E+02 W = 1.560502058421906E+02 Tp= 2454108.935119954403 N = 1.346614355639599E-05 MA= 8.351116294898664E-02 TA= 1.723277853105693E+02 A = 1.749741487247134E+03 AD= 3.499316101126642E+03 PR= 2.673371173360255E+07 2460676.500000000 = A.D. 2025-Jan-01 00:00:00.0000 TDB EC= 9.999178255929366E-01 QR= 1.688673775652864E-01 IN= 7.944904019397082E+01 OM= 2.663639958783461E+02 W = 1.561453172913225E+02 Tp= 2454111.536296767648 N = 1.058011294612263E-05 MA= 6.945805746737145E-02 TA= 1.724240923485962E+02 A = 2.054987478465186E+03 AD= 4.109806089552806E+03 PR= 3.402610178485209E+07 2461041.500000000 = A.D. 2026-Jan-01 00:00:00.0000 TDB EC= 9.999313396401596E-01 QR= 1.715744250639426E-01 IN= 7.940526430319613E+01 OM= 2.663910600296849E+02 W = 1.562067912189795E+02 Tp= 2454114.291223180946 N = 7.890133623261043E-06 MA= 5.465660288532038E-02 TA= 1.724954083765971E+02 A = 2.498886190851172E+03 AD= 4.997600807277280E+03 PR= 4.562660370398261E+07 2461406.500000000 = A.D. 2027-Jan-01 00:00:00.0000 TDB EC= 9.999414670258566E-01 QR= 1.741320531701113E-01 IN= 7.906102797608177E+01 OM= 2.666036557876146E+02 W = 1.562272827747248E+02 Tp= 2454116.408301232383 N = 6.074169131828662E-06 MA= 4.428124996483446E-02 TA= 1.725645779176348E+02 A = 2.974939437454639E+03 AD= 5.949704742856106E+03 PR= 5.926736516334375E+07 2461771.500000000 = A.D. 2028-Jan-01 00:00:00.0000 TDB EC= 9.999454304884179E-01 QR= 1.758789584841765E-01 IN= 7.848590345316680E+01 OM= 2.669585041469229E+02 W = 1.561971887590412E+02 Tp= 2454117.159021850210 N = 5.386520862012450E-06 MA= 4.123026736376324E-02 TA= 1.726473591924918E+02 A = 3.223026070491262E+03 AD= 6.445876262024039E+03 PR= 6.683349219694675E+07 2462137.500000000 = A.D. 2029-Jan-01 00:00:00.0000 TDB EC= 9.999440629197790E-01 QR= 1.767039378280729E-01 IN= 7.783806955669893E+01 OM= 2.673584113212530E+02 W = 1.561317953915566E+02 Tp= 2454116.603045543656 N = 5.551168657857856E-06 MA= 4.452535178146126E-02 TA= 1.727456901781120E+02 A = 3.158976784790129E+03 AD= 6.317776865642430E+03 PR= 6.485120921166905E+07 2462502.500000000 = A.D. 2030-Jan-01 00:00:00.0000 TDB EC= 9.999371469548718E-01 QR= 1.761854450124174E-01 IN= 7.729034723870696E+01 OM= 2.676968804104422E+02 W = 1.560451206103637E+02 Tp= 2454114.516310098581 N = 6.641077025976197E-06 MA= 5.570524577727194E-02 TA= 1.728674040154484E+02 A = 2.803133000986824E+03 AD= 5.606089816528635E+03 PR= 5.420807477339599E+07 2462867.500000000 = A.D. 2031-Jan-01 00:00:00.0000 TDB EC= 9.999267008675842E-01 QR= 1.744502385793903E-01 IN= 7.691611577632906E+01 OM= 2.679282189738111E+02 W = 1.559533681577743E+02 Tp= 2454111.214859611820 N = 8.488774046217222E-06 MA= 7.433012604102340E-02 TA= 1.730090338670688E+02 A = 2.379976854160776E+03 AD= 4.759779258082972E+03 PR= 4.240895069652886E+07 2463232.500000000 = A.D. 2032-Jan-01 00:00:00.0000 TDB EC= 9.999158897256443E-01 QR= 1.717944413728769E-01 IN= 7.690479453572533E+01 OM= 2.679352922310832E+02 W = 1.558929879107841E+02 Tp= 2454107.526242993306 N = 1.067736248764266E-05 MA= 9.743065249380511E-02 TA= 1.731632027259880E+02 A = 2.042490560026760E+03 AD= 4.084809325612148E+03 PR= 3.371619165469398E+07 2463598.500000000 = A.D. 2033-Jan-01 00:00:00.0000 TDB EC= 9.999069866217892E-01 QR= 1.686573215670395E-01 IN= 7.733571454714347E+01 OM= 2.676711794751250E+02 W = 1.558844039920273E+02 Tp= 2454104.196373067331 N = 1.276481139823445E-05 MA= 1.211929951553816E-01 TA= 1.733205498312333E+02 A = 1.813258746335007E+03 AD= 3.626348835348447E+03 PR= 2.820253184859379E+07 2463963.500000000 = A.D. 2034-Jan-01 00:00:00.0000 TDB EC= 9.999035845536405E-01 QR= 1.663504462430251E-01 IN= 7.813459766024332E+01 OM= 2.671858253975840E+02 W = 1.559395725755313E+02 Tp= 2454102.825936074369 N = 1.375270232414125E-05 MA= 1.356109151165582E-01 TA= 1.734529420262776E+02 A = 1.725350579431687E+03 AD= 3.450534808417130E+03 PR= 2.617667361039745E+07 2464328.500000000 = A.D. 2035-Jan-01 00:00:00.0000 TDB EC= 9.999070304768338E-01 QR= 1.658798956397962E-01 IN= 7.913936824108310E+01 OM= 2.665819796738126E+02 W = 1.560508917910840E+02 Tp= 2454104.473849893548 N = 1.307748856502459E-05 MA= 1.337045850665265E-01 TA= 1.735406213221542E+02 A = 1.784239501186320E+03 AD= 3.568313122477000E+03 PR= 2.752822135611043E+07 2464693.500000000 = A.D. 2036-Jan-01 00:00:00.0000 TDB EC= 9.999157855885875E-01 QR= 1.675383453506083E-01 IN= 7.991824622686734E+01 OM= 2.661186006903919E+02 W = 1.561720506543498E+02 Tp= 2454108.763330307789 N = 1.110739886177746E-05 MA= 1.175688920371384E-01 TA= 1.735801207045783E+02 A = 1.989426067818323E+03 AD= 3.978684597291294E+03 PR= 3.241082853689753E+07 2465059.500000000 = A.D. 2037-Jan-01 00:00:00.0000 TDB EC= 9.999280424906359E-01 QR= 1.710340764728171E-01 IN= 8.018082275716132E+01 OM= 2.659633893102953E+02 W = 1.562722964603181E+02 Tp= 2454114.862187337130 N = 8.505391088262167E-06 MA= 9.308842491609159E-02 TA= 1.735804725073735E+02 A = 2.376875992301377E+03 AD= 4.753580950526281E+03 PR= 4.232609603299920E+07 2465424.500000000 = A.D. 2038-Jan-01 00:00:00.0000 TDB EC= 9.999393390370788E-01 QR= 1.749402143014084E-01 IN= 7.991490027608381E+01 OM= 2.661200033592644E+02 W = 1.563243608855882E+02 Tp= 2454120.482047913130 N = 6.364049405501376E-06 MA= 7.193932872773401E-02 TA= 1.735724858933054E+02 A = 2.883901044045165E+03 AD= 5.767627147876028E+03 PR= 5.656775695185513E+07 2465789.500000000 = A.D. 2039-Jan-01 00:00:00.0000 TDB EC= 9.999467976648033E-01 QR= 1.783686506987189E-01 IN= 7.915772132689058E+01 OM= 2.665664855789919E+02 W = 1.563100908169329E+02 Tp= 2454124.118948808406 N = 5.077177257085458E-06 MA= 5.922720736836717E-02 TA= 1.735745547128881E+02 A = 3.352647022722501E+03 AD= 6.705115676794304E+03 PR= 7.090554096719821E+07 2466154.500000000 = A.D. 2040-Jan-01 00:00:00.0000 TDB EC= 9.999493924770909E-01 QR= 1.807501896786159E-01 IN= 7.818647342255163E+01 OM= 2.671415485920173E+02 W = 1.562414106878094E+02 Tp= 2454125.235603825655 N = 4.617517519582751E-06 MA= 5.554533909701432E-02 TA= 1.735968854567036E+02 A = 3.571607130473323E+03 AD= 7.143033510756968E+03 PR= 7.796397056930503E+07 2466520.500000000 = A.D. 2041-Jan-01 00:00:00.0000 TDB EC= 9.999458298211769E-01 QR= 1.814067736209090E-01 IN= 7.717584077487966E+01 OM= 2.677434800375625E+02 W = 1.561228436237904E+02 Tp= 2454123.018348594662 N = 5.085857982744734E-06 MA= 6.305183102273078E-02 TA= 1.736514399011478E+02 A = 3.348830990822974E+03 AD= 6.697480574872327E+03 PR= 7.078451683499728E+07 2466885.500000000 = A.D. 2042-Jan-01 00:00:00.0000 TDB EC= 9.999378276498125E-01 QR= 1.804381233383157E-01 IN= 7.628059299352428E+01 OM= 2.682800721598315E+02 W = 1.559784602682862E+02 Tp= 2454118.122060705908 N = 6.303874353543970E-06 MA= 8.048394635353373E-02 TA= 1.737343743455881E+02 A = 2.902224586877056E+03 AD= 5.804268735630772E+03 PR= 5.710773721205465E+07 2467250.500000000 = A.D. 2043-Jan-01 00:00:00.0000 TDB EC= 9.999271458447447E-01 QR= 1.777088030492315E-01 IN= 7.575448217829739E+01 OM= 2.685969032588628E+02 W = 1.558483742821135E+02 Tp= 2454111.229904785752 N = 8.181296865393725E-06 MA= 1.074962692435366E-01 TA= 1.738470204204636E+02 A = 2.439240458224243E+03 AD= 4.878303207645436E+03 PR= 4.400280370252461E+07 2467615.500000000 = A.D. 2044-Jan-01 00:00:00.0000 TDB EC= 9.999158871732158E-01 QR= 1.734895240957539E-01 IN= 7.569897064541338E+01 OM= 2.686304448460249E+02 W = 1.557598657192830E+02 Tp= 2454103.268335750792 N = 1.052173920927444E-05 MA= 1.421721777065257E-01 TA= 1.739836663658300E+02 A = 2.062581067932236E+03 AD= 4.124988646340377E+03 PR= 3.421487577668493E+07 2467981.500000000 = A.D. 2045-Jan-01 00:00:00.0000 TDB EC= 9.999077457045826E-01 QR= 1.689691149874977E-01 IN= 7.623433687983449E+01 OM= 2.683094727002210E+02 W = 1.557533504276284E+02 Tp= 2454096.765964912716 N = 1.257398605376812E-05 MA= 1.745864521174825E-01 TA= 1.741218731173106E+02 A = 1.831558240446798E+03 AD= 3.662947511778607E+03 PR= 2.863053915127548E+07 2468346.500000000 = A.D. 2046-Jan-01 00:00:00.0000 TDB EC= 9.999044915051865E-01 QR= 1.653381166952419E-01 IN= 7.735339866229921E+01 OM= 2.676452940280594E+02 W = 1.558388273188656E+02 Tp= 2454093.657106433995 N = 1.368382764535117E-05 MA= 1.950334456118083E-01 TA= 1.742393537207466E+02 A = 1.731135193969788E+03 AD= 3.462105049822881E+03 PR= 2.630842841127887E+07 2468711.500000000 = A.D. 2047-Jan-01 00:00:00.0000 TDB EC= 9.999066798799293E-01 QR= 1.641184459207539E-01 IN= 7.862721224070570E+01 OM= 2.668989103708691E+02 W = 1.559737575548789E+02 Tp= 2454095.374005633872 N = 1.336382910988517E-05 MA= 1.953274100372708E-01 TA= 1.743088716791269E+02 A = 1.758660895380070E+03 AD= 3.517157672314218E+03 PR= 2.693838697276588E+07 2469076.500000000 = A.D. 2048-Jan-01 00:00:00.0000 TDB EC= 9.999137937306227E-01 QR= 1.658706274572739E-01 IN= 7.965070974103141E+01 OM= 2.663059450411162E+02 W = 1.561203325745155E+02 Tp= 2454102.072034199256 N = 1.167772165468176E-05 MA= 1.748672017227089E-01 TA= 1.743215904225887E+02 A = 1.924113276874161E+03 AD= 3.848060683120864E+03 PR= 3.082793122198379E+07 2469442.500000000 = A.D. 2049-Jan-01 00:00:00.0000 TDB EC= 9.999226049900864E-01 QR= 1.694061697213955E-01 IN= 8.005543035185281E+01 OM= 2.660731562795726E+02 W = 1.562274429825131E+02 Tp= 2454110.600362456869 N = 9.624533300295947E-06 MA= 1.475623786183379E-01 TA= 1.743020352315992E+02 A = 2.188851321412274E+03 AD= 4.377533236654826E+03 PR= 3.740441107819018E+07 2469807.500000000 = A.D. 2050-Jan-01 00:00:00.0000 TDB EC= 9.999308340739835E-01 QR= 1.736410635975414E-01 IN= 7.972511618685658E+01 OM= 2.662626733423126E+02 W = 1.562705413404684E+02 Tp= 2454118.546850034036 N = 7.835445813518789E-06 MA= 1.229299422773859E-01 TA= 1.742711741877947E+02 A = 2.510500091570133E+03 AD= 5.020826542076668E+03 PR= 4.594505642281112E+07 $$EOE ******************************************************************************* TIME Barycentric Dynamical Time ("TDB" or T_eph) output was requested. This continuous coordinate time is equivalent to the relativistic proper time of a clock at rest in a reference frame co-moving with the solar system barycenter but outside the system's gravity well. It is the independent variable in the solar system relativistic equations of motion. TDB runs at a uniform rate of one SI second per second and is independent of irregularities in Earth's rotation. CALENDAR SYSTEM Mixed calendar mode was active such that calendar dates after AD 1582-Oct-15 (if any) are in the modern Gregorian system. Dates prior to 1582-Oct-5 (if any) are in the Julian calendar system, which is automatically extended for dates prior to its adoption on 45-Jan-1 BC. The Julian calendar is useful for matching historical dates. The Gregorian calendar more accurately corresponds to the Earth's orbital motion and seasons. A "Gregorian-only" calendar mode is available if such physical events are the primary interest. REFERENCE FRAME AND COORDINATES Ecliptic at the standard reference epoch Reference epoch: J2000.0 X-Y plane: adopted Earth orbital plane at the reference epoch Note: IAU76 obliquity of 84381.448 arcseconds wrt ICRF X-Y plane X-axis : ICRF Z-axis : perpendicular to the X-Y plane in the directional (+ or -) sense of Earth's north pole at the reference epoch. Symbol meaning [1 au= 149597870.700 km, 1 day= 86400.0 s]: JDTDB Julian Day Number, Barycentric Dynamical Time EC Eccentricity, e QR Periapsis distance, q (au) IN Inclination w.r.t X-Y plane, i (degrees) OM Longitude of Ascending Node, OMEGA, (degrees) W Argument of Perifocus, w (degrees) Tp Time of periapsis (Julian Day Number) N Mean motion, n (degrees/day) MA Mean anomaly, M (degrees) TA True anomaly, nu (degrees) A Semi-major axis, a (au) AD Apoapsis distance (au) PR Sidereal orbit period (day) ABERRATIONS AND CORRECTIONS Geometric osculating elements have NO corrections or aberrations applied. Computations by ... Solar System Dynamics Group, Horizons On-Line Ephemeris System 4800 Oak Grove Drive, Jet Propulsion Laboratory Pasadena, CA 91109 USA General site: https://ssd.jpl.nasa.gov/ Mailing list: https://ssd.jpl.nasa.gov/email_list.html System news : https://ssd.jpl.nasa.gov/horizons/news.html User Guide : https://ssd.jpl.nasa.gov/horizons/manual.html Connect : browser https://ssd.jpl.nasa.gov/horizons/app.html#/x API https://ssd-api.jpl.nasa.gov/doc/horizons.html command-line telnet ssd.jpl.nasa.gov 6775 e-mail/batch https://ssd.jpl.nasa.gov/ftp/ssd/hrzn_batch.txt scripts https://ssd.jpl.nasa.gov/ftp/ssd/SCRIPTS Author : Jon.D.Giorgini@jpl.nasa.gov ******************************************************************************* !$$SOF TABLE_TYPE = ELEMENTS OUT_UNITS = AU-D COMMAND = "C/2006 P1" CENTER = 'sun' START_TIME = 2006-01-01 STOP_TIME = 2050-01-01 STEP_SIZE = 1Y